Weather
NORAD ID: 26382
Int'l Code: 2000-032A
Perigee: 35,847.7 km
Apogee: 35,852.5 km
Inclination: 7.6 °
Period: 1,439.0 minutes
Semi major axis: 42221 km
Launch date: June 25, 2000
Source: People's Republic of China (PRC)
Comments: Scanning radiometer, a cloud mapper, water vapor scanner to provide timely weather data; provides hoursly full-disk images of Earth in visible and infrared wavelengths.
Two Line Element Set (TLE):
1 26382U 00032A 13138.75325697 -.00000139 00000-0 10000-3 0 6519
2 26382 007.5546 055.2759 0000578 002.2923 357.5874 01.00071073 47190
Source: AFSPC
NASA's NSSDC Master Catalog entry for FENGYUN 2B